Raleigh-Durham Airport, NC

3:51 PM EDT on April 21, 2018 (GMT -0400)
Raleigh-Durham International

Weather History for KRDU - December, 2010

Change the Weather History Date:

Wednesday, December 8, 2010

  Actual Average Record
Temperature  
Mean Temperature 27 °F 45 °F  
Max Temperature 38 °F 56 °F 78 °F (1978)
Min Temperature 16 °F 35 °F 13 °F (1977)
Degree Days  
Heating Degree Days 38 20  
Month to date heating degree days 233 151  
Since 1 July heating degree days 735 732  
Cooling Degree Days 0 0  
Month to date cooling degree days 0 0  
Year to date cooling degree days 2316 1728  
Moisture  
Dew Point 10 °F    
Average Humidity 50    
Maximum Humidity 67    
Minimum Humidity 32    
Precipitation  
Precipitation 0.00 in 0.10 in 2.07 in (1920)
Month to date precipitation 0.56 0.81  
Year to date precipitation 35.11 41.08  
Snow  
Snow 0.00 in 0.10 in 0.80 in (1989)
Month to date snowfall 0.8 0.1  
Since 1 July snowfall 0.8 0.2  
Snow Depth 0.00 in    
Sea Level Pressure  
Sea Level Pressure 30.15 in    
Wind  
Wind Speed 3 mph (NW)    
Max Wind Speed 10 mph    
Max Gust Speed 16 mph    
Visibility 10 miles    
Events      
T = Trace of Precipitation, MM = Missing Value Source: NWS Daily Summary

Daily Weather History Graph

Daily Weather History Graph

Search for Another Location

Airport or City:

Astronomy

Dec. 08, 2010 Rise Set
Actual Time 7:12 AM EST 5:01 PM EST
Civil Twilight 6:44 AM EST 5:29 PM EST
Nautical Twilight 6:12 AM EST 6:01 PM EST
Astronomical Twilight 5:41 AM EST 6:32 PM EST
Moon 9:39 AM EST (12/8) 7:59 PM EST (12/8)
Length of Visible Light 10h 44m
Length of Day
9h 48m
Waxing Crescent, 10% of the Moon is Illuminated
Dec 8
Waxing Crescent
Dec 13
First Quarter
Dec 21
Full
Dec 27
Last Quarter
Jan 4
New

Hourly Weather History & Observations

Time (EST) Temp. Windchill Dew Point Humidity Pressure Visibility Wind Dir Wind Speed Gust Speed Precip Events Conditions
12:51 AM 23.0 °F 18.4 °F 8.1 °F 53% 30.08 in 10.0 mi WNW 3.5 mph - N/A   Clear
1:51 AM 21.0 °F - 9.0 °F 60% 30.09 in 10.0 mi Calm Calm - N/A   Clear
2:51 AM 19.9 °F - 9.0 °F 62% 30.09 in 10.0 mi Calm Calm - N/A   Clear
3:51 AM 18.0 °F 12.7 °F 9.0 °F 68% 30.11 in 10.0 mi West 3.5 mph - N/A   Clear
4:51 AM 19.0 °F - 8.1 °F 62% 30.10 in 10.0 mi Calm Calm - N/A   Clear
5:51 AM 18.0 °F - 9.0 °F 68% 30.13 in 10.0 mi Calm Calm - N/A   Clear
6:51 AM 18.0 °F - 8.1 °F 65% 30.14 in 10.0 mi Calm Calm - N/A   Clear
7:51 AM 19.0 °F - 10.0 °F 68% 30.15 in 10.0 mi Calm Calm - N/A   Clear
8:51 AM 25.0 °F 20.7 °F 10.9 °F 55% 30.15 in 10.0 mi WNW 3.5 mph - N/A   Scattered Clouds
9:51 AM 30.0 °F 24.1 °F 10.0 °F 43% 30.17 in 10.0 mi Variable 5.8 mph - N/A   Scattered Clouds
10:51 AM 30.2 °F 23.4 °F 8.6 °F 40% 30.15 in 10.0 mi Variable 6.9 mph 16.1 mph N/A   Scattered Clouds
11:51 AM 34.0 °F 28.0 °F 10.0 °F 37% 30.15 in 10.0 mi Variable 6.9 mph - N/A   Scattered Clouds
12:51 PM 37.4 °F 32.8 °F 10.4 °F 33% 30.11 in 10.0 mi Variable 5.8 mph - N/A   Mostly Cloudy
1:51 PM 36.0 °F 31.1 °F 9.0 °F 33% 30.12 in 10.0 mi Variable 5.8 mph - N/A   Mostly Cloudy
2:51 PM 35.6 °F 30.7 °F 8.6 °F 33% 30.11 in 10.0 mi WNW 5.8 mph - N/A   Mostly Cloudy
3:51 PM 37.0 °F 32.4 °F 10.9 °F 34% 30.14 in 10.0 mi West 5.8 mph - N/A   Mostly Cloudy
4:51 PM 33.1 °F - 10.9 °F 40% 30.14 in 10.0 mi Calm Calm - N/A   Mostly Cloudy
5:51 PM 32.0 °F - 10.9 °F 42% 30.17 in 10.0 mi Calm Calm - N/A   Mostly Cloudy
6:51 PM 32.0 °F - 10.9 °F 42% 30.18 in 10.0 mi Calm Calm - N/A   Overcast
7:51 PM 32.0 °F - 10.9 °F 42% 30.19 in 10.0 mi Calm Calm - N/A   Overcast
8:51 PM 32.0 °F - 10.9 °F 42% 30.21 in 10.0 mi Calm Calm - N/A   Overcast
9:51 PM 32.0 °F 27.5 °F 10.9 °F 42% 30.23 in 10.0 mi Variable 4.6 mph - N/A   Overcast
10:51 PM 30.9 °F 27.5 °F 12.0 °F 46% 30.25 in 10.0 mi North 3.5 mph - N/A   Overcast
11:51 PM 30.0 °F 26.5 °F 12.0 °F 47% 30.25 in 10.0 mi NNE 3.5 mph - N/A   Mostly Cloudy